SVFLIR Weather Reports


Display with metric or nautical units.
time (UTC)temp
F
wind
direction
speed
MPH
gust
MPH
rain 1hr
in
rain 24hr
in
rain mn
in
humidity
%
barometer
mb
20260906045927 80 19 0.0 0.0 0.00 0.00 0.00 100 1009.4
20260906045419 80 19 0.0 0.0 0.00 0.00 0.00 100 1009.4
20260906044857 80 19 0.0 0.0 0.00 0.00 0.00 100 1009.4
20260906043848 83 19 0.0 0.0 0.00 0.00 0.00 100 1009.4
20260906043347 80 19 0.0 3.0 0.00 0.00 0.00 100 1009.4
20260906042833 79 19 0.0 3.0 0.00 0.00 0.00 100 1009.4
20260906042331 81 40 2.0 3.0 0.00 0.00 0.00 100 1009.4
20260906042048 83 298 0.0 0.0 0.00 0.00 0.00 100 1009.4
20260906041307 80 298 0.0 0.0 0.00 0.00 0.00 100 1009.4
20260906040804 81 298 0.0 1.0 0.00 0.00 0.00 100 1009.4
20260906040255 79 298 0.0 1.0 0.00 0.00 0.00 100 1009.4
20260906040018 81 324 0.0 0.0 0.00 0.00 0.00 100 1009.4
20260906035512 80 324 0.0 0.0 0.00 0.00 0.00 100 1009.4
20260906034751 74 324 0.0 0.0 0.00 0.00 0.00 100 1009.4
20260906033744 77 324 0.0 0.0 0.00 0.00 0.00 100 1009.4
20260906033239 76 324 0.0 0.0 0.00 0.00 0.00 100 1009.4
20260906032730 79 324 0.0 0.0 0.00 0.00 0.00 100 1009.4
20260906032226 79 324 0.0 0.0 0.00 0.00 0.00 100 1009.4
20260906031725 80 324 0.0 0.0 0.00 0.00 0.00 100 1009.4
20260906031436 81 324 0.0 3.0 0.00 0.00 0.00 100 1009.4
20260906030652 82 324 0.0 6.0 0.00 0.00 0.00 100 1009.4
20260906030146 83 333 2.0 6.0 0.00 0.00 0.00 100 1009.4
20260906025646 83 317 5.0 7.0 0.00 0.00 0.00 100 1009.4
20260906025409 83 303 4.0 9.0 0.00 0.00 0.00 100 1009.4
20260906024645 83 327 6.0 9.0 0.00 0.00 0.00 100 1009.4
20260906024144 83 316 6.0 10.0 0.00 0.00 0.00 100 1009.4
20260906023643 83 296 7.0 10.0 0.00 0.00 0.00 100 1009.4
20260906023143 88 284 7.0 12.0 0.00 0.00 0.00 100 1009.4
20260906022642 85 278 9.0 12.0 0.00 0.00 0.00 100 1009.4
20260906022141 86 292 10.0 12.0 0.00 0.00 0.00 100 1009.4
20260906021642 86 310 8.0 12.0 0.00 0.00 0.00 100 1009.4
20260906021358 86 296 8.0 13.0 0.00 0.00 0.00 100 1009.4
20260906020640 86 295 9.0 14.0 0.00 0.00 0.00 100 1009.4
20260906020140 87 295 9.0 14.0 0.00 0.00 0.00 100 1009.4
20260906015639 88 282 11.0 13.0 0.00 0.00 0.00 100 1009.4
20260906015138 90 302 9.0 14.0 0.00 0.00 0.00 100 1009.4
20260906014137 92 293 9.0 15.0 0.00 0.00 0.00 100 1009.4
20260906013636 92 296 10.0 15.0 0.00 0.00 0.00 100 1009.4
20260906013136 93 291 13.0 16.0 0.00 0.00 0.00 100 1009.4
20260906012636 93 291 11.0 16.0 0.00 0.00 0.00 100 1009.4
20260906012135 93 285 10.0 16.0 0.00 0.00 0.00 100 1009.4
20260906011634 93 307 11.0 15.0 0.00 0.00 0.00 100 1009.4
20260906011401 94 291 9.0 15.0 0.00 0.00 0.00 100 1009.4
20260906010633 94 261 10.0 15.0 0.00 0.00 0.00 100 1009.4
20260906010132 94 300 11.0 18.0 0.00 0.00 0.00 100 1009.4
20260906005631 94 279 11.0 18.0 0.00 0.00 0.00 100 1009.4
20260906005131 94 295 10.0 15.0 0.00 0.00 0.00 100 1009.4
20260906004630 95 281 11.0 15.0 0.00 0.00 0.00 100 1009.4
20260906004351 95 333 6.0 13.0 0.00 0.00 0.00 100 1009.4
20260906003630 95 261 10.0 13.0 0.00 0.00 0.00 100 1009.4
20260906003129 94 285 9.0 13.0 0.00 0.00 0.00 100 1009.4
20260906002628 96 292 6.0 13.0 0.00 0.00 0.00 100 1009.4
20260906002128 96 329 9.0 13.0 0.00 0.00 0.00 100 1009.4
20260906001627 95 334 8.0 14.0 0.00 0.00 0.00 100 1009.4
20260906001346 95 274 9.0 17.0 0.00 0.00 0.00 100 1009.4
20260906000626 95 284 13.0 17.0 0.00 0.00 0.00 100 1009.4
20260906000125 95 305 12.0 15.0 0.00 0.00 0.00 100 1009.4
20260905235624 95 319 6.0 15.0 0.00 0.00 0.00 100 1009.4
20260905235124 96 282 9.0 13.0 0.00 0.00 0.00 100 1009.4
20260905234623 97 316 9.0 14.0 0.00 0.00 0.00 100 1009.4
20260905234343 97 267 10.0 14.0 0.00 0.00 0.00 100 1009.4
20260905233621 97 275 6.0 13.0 0.00 0.00 0.00 100 1009.4
20260905233122 96 323 9.0 13.0 0.00 0.00 0.00 100 1009.4
20260905232621 96 9 5.0 12.0 0.00 0.00 0.00 100 1009.4
20260905232337 95 265 8.0 14.0 0.00 0.00 0.00 100 1009.4
20260905231620 96 291 9.0 14.0 0.00 0.00 0.00 100 1009.4
20260905231343 95 282 10.0 13.0 0.00 0.00 0.00 100 1009.4
20260905230618 95 282 7.0 14.0 0.00 0.00 0.00 100 1009.4
20260905230117 95 270 8.0 14.0 0.00 0.00 0.00 100 1009.4
20260905225618 95 285 7.0 14.0 0.00 0.00 0.00 100 1009.4
20260905225116 95 267 7.0 15.0 0.00 0.00 0.00 100 1009.4
20260905224616 96 261 11.0 15.0 0.00 0.00 0.00 100 1009.4
20260905223615 97 341 3.0 9.0 0.00 0.00 0.00 100 1009.4
20260905223114 96 281 6.0 13.0 0.00 0.00 0.00 100 1009.4
20260905222613 96 310 9.0 13.0 0.00 0.00 0.00 100 1009.4
20260905222113 96 288 7.0 12.0 0.00 0.00 0.00 100 1009.4
20260905221613 96 338 6.0 15.0 0.00 0.00 0.00 100 1009.4
20260905221111 96 278 11.0 16.0 0.00 0.00 0.00 100 1009.4
20260905220610 97 223 4.0 16.0 0.00 0.00 0.00 100 1009.4
20260905220111 97 270 9.0 12.0 0.00 0.00 0.00 100 1009.4
20260905215610 97 202 0.0 14.0 0.00 0.00 0.00 100 1009.4
20260905215047 92 310 6.0 15.0 0.00 0.00 0.00 100 1009.4
20260905214546 94 278 5.0 15.0 0.00 0.00 0.00 100 1009.4
20260905214046 94 288 13.0 17.0 0.00 0.00 0.00 100 1009.4
20260905213545 94 324 5.0 21.0 0.00 0.00 0.00 100 1009.4
20260905213045 96 281 11.0 21.0 0.00 0.00 0.00 100 1009.4
20260905212544 93 271 8.0 20.0 0.00 0.00 0.00 100 1009.4
20260905212043 93 319 0.0 11.0 0.00 0.00 0.00 100 1009.4
20260905211542 94 174 1.0 11.0 0.00 0.00 0.00 100 1009.4
20260905211036 97 230 7.0 11.0 0.00 0.00 0.00 100 1009.4
20260905210535 97 292 8.0 12.0 0.00 0.00 0.00 100 1009.4
20260905210035 95 282 2.0 16.0 0.00 0.00 0.00 100 1009.4
20260905205746 92 274 7.0 16.0 0.00 0.00 0.00 100 1009.4
20260905205244 92 250 8.0 16.0 0.00 0.00 0.00 100 1009.4
20260905204744 93 305 7.0 9.0 0.00 0.00 0.00 100 1009.4
20260905204024 92 185 0.0 9.0 0.00 0.00 0.00 100 1009.4
20260905203520 91 126 6.0 11.0 0.00 0.00 0.00 100 1009.4
20260905203019 88 215 5.0 12.0 0.00 0.00 0.00 100 1009.4
20260905202518 94 189 9.0 12.0 0.00 0.00 0.00 100 1009.4
20260905202017 92 225 0.0 9.0 0.00 0.00 0.00 100 1009.4
20260905201518 93 291 0.0 9.0 0.00 0.00 0.00 100 1009.4
20260905201017 93 215 0.0 11.0 0.00 0.00 0.00 100 1009.4
20260905200511 92 247 0.0 13.0 0.00 0.00 0.00 100 1009.4
20260905200011 94 213 3.0 13.0 0.00 0.00 0.00 100 1009.4
20260905195510 94 202 8.0 13.0 0.00 0.00 0.00 100 1009.4
20260905195009 92 84 3.0 9.0 0.00 0.00 0.00 100 1009.4
20260905194510 88 219 6.0 9.0 0.00 0.00 0.00 100 1009.4
20260905194008 88 206 1.0 9.0 0.00 0.00 0.00 100 1009.4
20260905193506 87 246 5.0 10.0 0.00 0.00 0.00 100 1009.4
20260905192943 91 246 5.0 10.0 0.00 0.00 0.00 100 1009.4
20260905192442 90 243 6.0 10.0 0.00 0.00 0.00 100 1009.4
20260905191941 89 115 0.0 8.0 0.00 0.00 0.00 100 1009.4
20260905191435 88 130 5.0 9.0 0.00 0.00 0.00 100 1009.4
20260905190934 88 161 1.0 10.0 0.00 0.00 0.00 100 1009.4
20260905190428 89 157 6.0 10.0 0.00 0.00 0.00 100 1009.4
20260905185927 90 217 5.0 9.0 0.00 0.00 0.00 100 1009.4
20260905185426 92 150 4.0 9.0 0.00 0.00 0.00 100 1009.4
20260905184925 93 219 6.0 11.0 0.00 0.00 0.00 100 1009.4
20260905184650 94 220 6.0 11.0 0.00 0.00 0.00 100 1009.4
20260905183925 93 226 6.0 11.0 0.00 0.00 0.00 100 1009.4
20260905183424 95 250 0.0 8.0 0.00 0.00 0.00 100 1009.4
20260905182924 89 279 4.0 11.0 0.00 0.00 0.00 100 1009.4
20260905182144 90 140 5.0 10.0 0.00 0.00 0.00 100 1009.4
20260905181420 89 268 6.0 10.0 0.00 0.00 0.00 100 1009.4
20260905180919 92 257 6.0 9.0 0.00 0.00 0.00 100 1009.4
20260905180418 88 241 4.0 10.0 0.00 0.00 0.00 100 1009.4
20260905175917 82 127 2.0 10.0 0.00 0.00 0.00 100 1009.4
20260905175413 84 230 4.0 10.0 0.00 0.00 0.00 100 1009.4
20260905174912 85 192 7.0 9.0 0.00 0.00 0.00 100 1009.4
20260905174411 86 202 1.0 6.0 0.00 0.00 0.00 100 1009.4
20260905173909 87 151 0.0 6.0 0.00 0.00 0.00 100 1009.4
20260905173628 89 150 1.0 6.0 0.00 0.00 0.00 100 1009.4
20260905172908 90 229 0.0 5.0 0.00 0.00 0.00 100 1009.4
20260905172405 88 243 2.0 5.0 0.00 0.00 0.00 100 1009.4
20260905171905 89 261 2.0 5.0 0.00 0.00 0.00 100 1009.4
20260905171629 83 153 0.0 2.0 0.00 0.00 0.00 100 1009.4
20260905170853 85 153 0.0 3.0 0.00 0.00 0.00 100 1009.4
20260905170351 83 153 0.0 5.0 0.00 0.00 0.00 100 1009.4
20260905165846 89 225 0.0 5.0 0.00 0.00 0.00 100 1009.4
20260905165339 90 243 3.0 5.0 0.00 0.00 0.00 100 1009.4
20260905164838 90 202 1.0 6.0 0.00 0.00 0.00 100 1009.4
20260905164337 90 203 3.0 6.0 0.00 0.00 0.00 100 1009.4
20260905164055 88 248 0.0 4.0 0.00 0.00 0.00 100 1009.4
20260905163332 88 156 0.0 0.0 0.00 0.00 0.00 100 1009.4
20260905163050 87 156 0.0 2.0 0.00 0.00 0.00 100 1009.4
20260905162505 86 156 0.0 3.0 0.00 0.00 0.00 100 1009.4
20260905161732 86 171 2.0 3.0 0.00 0.00 0.00 100 1009.4
20260905161231 87 198 0.0 3.0 0.00 0.00 0.00 100 1009.4
20260905160728 86 248 0.0 0.0 0.00 0.00 0.00 100 1009.4
20260905160227 86 248 0.0 0.0 0.00 0.00 0.00 100 1009.4
20260905155948 87 248 0.0 0.0 0.00 0.00 0.00 100 1009.4
20260905155218 87 248 0.0 0.0 0.00 0.00 0.00 100 1009.4
20260905154708 88 248 0.0 0.0 0.00 0.00 0.00 100 1009.4
20260905154207 87 248 0.0 0.0 0.00 0.00 0.00 100 1009.4
20260905153701 86 248 0.0 0.0 0.00 0.00 0.00 100 1009.4
20260905153134 85 248 0.0 3.0 0.00 0.00 0.00 100 1009.4
20260905152626 87 248 1.0 3.0 0.00 0.00 0.00 100 1009.4
20260905152118 85 16 0.0 0.0 0.00 0.00 0.00 100 1009.4
20260905151559 85 16 0.0 0.0 0.00 0.00 0.00 100 1009.4
20260905151028 87 16 0.0 0.0 0.00 0.00 0.00 100 1009.4
20260905145959 85 16 0.0 2.0 0.00 0.00 0.00 100 1009.4
20260905145448 84 16 0.0 2.0 0.00 0.00 0.00 100 1009.4
20260905144931 83 16 1.0 2.0 0.00 0.00 0.00 100 1009.4
20260905144428 82 90 0.0 0.0 0.00 0.00 0.00 100 1009.4
20260905143422 81 90 0.0 0.0 0.00 0.00 0.00 100 1009.4
20260905142916 80 90 0.0 0.0 0.00 0.00 0.00 100 1009.4
20260905142413 80 90 0.0 0.0 0.00 0.00 0.00 100 1009.4
20260905142131 80 90 0.0 0.0 0.00 0.00 0.00 100 1009.4
20260905141621 81 90 0.0 0.0 0.00 0.00 0.00 100 1009.4
20260905140847 77 90 0.0 0.0 0.00 0.00 0.00 100 1009.4
20260905140553 77 90 0.0 1.0 0.00 0.00 0.00 100 1009.4
20260905135831 74 90 0.0 1.0 0.00 0.00 0.00 100 1009.4
20260905135323 73 90 0.0 1.0 0.00 0.00 0.00 100 1009.4
20260905134820 73 229 0.0 0.0 0.00 0.00 0.00 100 1009.4
20260905134311 72 229 0.0 0.0 0.00 0.00 0.00 100 1009.4
20260905133752 72 229 0.0 0.0 0.00 0.00 0.00 100 1009.4
20260905133242 73 229 0.0 0.0 0.00 0.00 0.00 100 1009.4
20260905132731 73 229 0.0 0.0 0.00 0.00 0.00 100 1009.4
20260905132218 74 229 0.0 0.0 0.00 0.00 0.00 100 1009.4
20260905131651 71 229 0.0 0.0 0.00 0.00 0.00 100 1009.4
20260905131140 71 229 0.0 0.0 0.00 0.00 0.00 100 1009.4
20260905130636 71 229 0.0 0.0 0.00 0.00 0.00 100 1009.4
20260905130332 72 229 0.0 0.0 0.00 0.00 0.00 100 1009.4
20260905125610 72 229 0.0 0.0 0.00 0.00 0.00 100 1009.4
20260905125110 71 229 0.0 0.0 0.00 0.00 0.00 100 1009.4
20260905124546 69 229 0.0 0.0 0.00 0.00 0.00 100 1009.4
20260905124045 70 229 0.0 0.0 0.00 0.00 0.00 100 1009.4
20260905123535 71 229 0.0 0.0 0.00 0.00 0.00 100 1009.4
20260905122956 69 229 0.0 0.0 0.00 0.00 0.00 100 1009.4
20260905122433 70 229 0.0 0.0 0.00 0.00 0.00 100 1009.4
20260905121902 70 229 0.0 0.0 0.00 0.00 0.00 100 1009.4
20260905121351 71 229 0.0 0.0 0.00 0.00 0.00 100 1009.4
20260905120850 71 229 0.0 0.0 0.00 0.00 0.00 100 1009.4
20260905120340 71 229 0.0 0.0 0.00 0.00 0.00 100 1009.4
20260905115816 71 229 0.0 0.0 0.00 0.00 0.00 100 1009.4
20260905115316 72 229 0.0 0.0 0.00 0.00 0.00 100 1009.4
20260905114806 73 229 0.0 0.0 0.00 0.00 0.00 100 1009.4
20260905114224 74 229 0.0 0.0 0.00 0.00 0.00 100 1009.4
20260905113711 74 229 0.0 0.0 0.00 0.00 0.00 100 1009.4
20260905112907 74 229 0.0 0.0 0.00 0.00 0.00 100 1009.4
20260905112137 73 229 0.0 0.0 0.00 0.00 0.00 100 1009.4
20260905111121 73 229 0.0 0.0 0.00 0.00 0.00 100 1009.4
20260905110602 73 229 0.0 0.0 0.00 0.00 0.00 100 1009.4
20260905110036 73 229 0.0 0.0 0.00 0.00 0.00 100 1009.4
20260905105508 68 229 0.0 0.0 0.00 0.00 0.00 100 1009.4
20260905104954 64 229 0.0 0.0 0.00 0.00 0.00 100 1009.4
20260905104449 68 229 0.0 0.0 0.00 0.00 0.00 100 1009.4
20260905103938 68 229 0.0 0.0 0.00 0.00 0.00 100 1009.4
20260905103435 68 229 0.0 0.0 0.00 0.00 0.00 100 1009.4
20260905102927 72 229 0.0 0.0 0.00 0.00 0.00 100 1009.4
20260905102647 72 229 0.0 0.0 0.00 0.00 0.00 100 1009.4
20260905101415 68 229 0.0 0.0 0.00 0.00 0.00 100 1009.4
20260905100912 69 229 0.0 0.0 0.00 0.00 0.00 100 1009.4
20260905100409 71 229 0.0 0.0 0.00 0.00 0.00 100 1009.4
20260905095855 72 229 0.0 0.0 0.00 0.00 0.00 100 1009.4
20260905095616 73 229 0.0 0.0 0.00 0.00 0.00 100 1009.4
20260905094847 74 229 0.0 0.0 0.00 0.00 0.00 100 1009.4
20260905094331 75 229 0.0 0.0 0.00 0.00 0.00 100 1009.4
20260905094050 75 229 0.0 0.0 0.00 0.00 0.00 100 1009.4
20260905093536 73 229 0.0 0.0 0.00 0.00 0.00 100 1009.4
20260905092750 68 229 0.0 0.0 0.00 0.00 0.00 100 1009.4
20260905092249 67 229 0.0 0.0 0.00 0.00 0.00 100 1009.4
20260905091748 70 229 0.0 0.0 0.00 0.00 0.00 100 1009.4
20260905091247 72 229 0.0 0.0 0.00 0.00 0.00 100 1009.4
20260905090214 72 229 0.0 0.0 0.00 0.00 0.00 100 1009.4
20260905085714 74 229 0.0 0.0 0.00 0.00 0.00 100 1009.4
20260905085207 72 229 0.0 0.0 0.00 0.00 0.00 100 1009.4
20260905084648 71 229 0.0 0.0 0.00 0.00 0.00 100 1009.4
20260905084148 74 229 0.0 0.0 0.00 0.00 0.00 100 1009.4
20260905083633 74 229 0.0 0.0 0.00 0.00 0.00 100 1009.4
20260905083123 78 229 0.0 0.0 0.00 0.00 0.00 100 1009.4
20260905082610 77 229 0.0 0.0 0.00 0.00 0.00 100 1009.4
20260905082058 79 229 0.0 0.0 0.00 0.00 0.00 100 1009.4
20260905081557 79 229 0.0 0.0 0.00 0.00 0.00 100 1009.4
20260905081039 78 229 0.0 0.0 0.00 0.00 0.00 100 1009.4
20260905080528 79 229 0.0 1.0 0.00 0.00 0.00 100 1009.4
20260905080027 81 229 0.0 1.0 0.00 0.00 0.00 100 1009.4
20260905075509 81 229 0.0 1.0 0.00 0.00 0.00 100 1009.4
20260905075000 82 7 0.0 0.0 0.00 0.00 0.00 100 1009.4
20260905074204 79 7 0.0 0.0 0.00 0.00 0.00 100 1009.4
20260905073640 81 7 0.0 0.0 0.00 0.00 0.00 100 1009.4
20260905072913 83 7 0.0 2.0 0.00 0.00 0.00 100 1009.4
20260905072407 83 7 0.0 4.0 0.00 0.00 0.00 100 1009.4
20260905071827 80 7 0.0 5.0 0.00 0.00 0.00 100 1009.4
20260905071324 85 14 3.0 6.0 0.00 0.00 0.00 100 1009.4
20260905070323 88 292 3.0 9.0 0.00 0.00 0.00 100 1009.4
20260905065822 85 275 6.0 10.0 0.00 0.00 0.00 100 1009.4
20260905065544 84 246 6.0 10.0 0.00 0.00 0.00 100 1009.4
20260905064821 85 264 6.0 10.0 0.00 0.00 0.00 100 1009.4
20260905064321 86 272 5.0 10.0 0.00 0.00 0.00 100 1009.4
20260905063820 86 258 6.0 10.0 0.00 0.00 0.00 100 1009.4
20260905063319 86 272 8.0 13.0 0.00 0.00 0.00 100 1009.4
20260905062818 87 246 5.0 13.0 0.00 0.00 0.00 100 1009.4
20260905061817 87 248 10.0 12.0 0.00 0.00 0.00 100 1009.4
20260905061317 87 237 9.0 12.0 0.00 0.00 0.00 100 1009.4
20260905060817 88 254 7.0 10.0 0.00 0.00 0.00 100 1009.4
20260905060542 89 248 7.0 10.0 0.00 0.00 0.00 100 1009.4
20260905055815 89 251 7.0 10.0 0.00 0.00 0.00 100 1009.4
20260905055315 89 264 8.0 11.0 0.00 0.00 0.00 100 1009.4
20260905054814 89 254 6.0 11.0 0.00 0.00 0.00 100 1009.4
20260905054313 89 262 8.0 11.0 0.00 0.00 0.00 100 1009.4
20260905053813 89 248 7.0 9.0 0.00 0.00 0.00 100 1009.4
20260905053312 90 275 5.0 9.0 0.00 0.00 0.00 100 1009.4
20260905052811 89 243 7.0 8.0 0.00 0.00 0.00 100 1009.4
20260905052311 89 255 3.0 7.0 0.00 0.00 0.00 100 1009.4
20260905051810 90 257 4.0 6.0 0.00 0.00 0.00 100 1009.4
20260905051310 90 255 4.0 6.0 0.00 0.00 0.00 100 1009.4
20260905050809 90 246 4.0 10.0 0.00 0.00 0.00 100 1009.4
20260905050308 90 248 4.0 10.0 0.00 0.00 0.00 100 1009.4